Weather History for Smyrna, TN

Change the Weather History Date:

Tuesday, April 8, 2014

  Actual Average Record
Temperature  
Mean Temperature 49 °F -  
Max Temperature 63 °F 65 °F 86 °F (2011)
Min Temperature 35 °F 48 °F 21 °F (2007)
Degree Days  
Heating Degree Days 16    
Moisture  
Dew Point 41 °F    
Average Humidity 86    
Maximum Humidity 100    
Minimum Humidity 44    
Precipitation  
Precipitation 0.00 in - - ()
Sea Level Pressure  
Sea Level Pressure 29.86 in    
Wind  
Wind Speed 4 mph (NW)    
Max Wind Speed 21 mph    
Max Gust Speed 24 mph    
Visibility 7 miles    
Events Fog , Rain    
Averages and records for this station are not official NWS values.
T = Trace of Precipitation, MM = Missing Value Source: NWS Daily Summary

Daily Weather History Graph

Daily Weather History Graph

Search for Another Location

Airport:

Trip Planner

Search our weather history database for the weather conditions in past years. The results will help you decide how hot, cold, wet, or windy it might be!

Date:

Astronomy

Apr. 08, 2014 Rise Set
Actual Time 6:22 AM CDT 7:13 PM CDT
Civil Twilight 5:56 AM CDT 7:39 PM CDT
Nautical Twilight 5:25 AM CDT 8:10 PM CDT
Astronomical Twilight 4:53 AM CDT 8:42 PM CDT
Moon 1:17 PM CDT (4/8) 2:24 AM CDT (4/8)
Length of Visible Light 13h 43m
Length of Day
12h 51m
Waxing Gibbous, 63% of the Moon is Illuminated
Apr 8
Waxing Gibbous
Apr 15
Full
Apr 22
Last Quarter
Apr 29
New
May 6
First Quarter

Hourly Weather History & Observations

Time (CDT) Temp. Windchill Dew Point Humidity Pressure Visibility Wind Dir Wind Speed Gust Speed Precip Events Conditions
12:31 AM 46.4 °F 42.9 °F 42.8 °F 87% 29.86 in 10.0 mi WNW 6.9 mph - N/A   Mostly Cloudy
12:56 AM 45.9 °F 41.7 °F 41.0 °F 83% 29.88 in 10.0 mi WNW 8.1 mph - N/A   Mostly Cloudy
1:56 AM 43.9 °F 40.5 °F 39.9 °F 86% 29.86 in 10.0 mi West 5.8 mph - N/A   Scattered Clouds
2:56 AM 41.9 °F - 39.9 °F 93% 29.86 in 10.0 mi Calm Calm - N/A   Clear
3:56 AM 39.9 °F - 38.8 °F 96% 29.85 in 10.0 mi Calm Calm - N/A   Clear
4:44 AM 37.4 °F - 37.4 °F 100% 29.81 in 1.8 mi Calm Calm - N/A   Clear
4:56 AM 38.8 °F - 38.8 °F 100% 29.84 in 6.0 mi Calm Calm - N/A   Clear
5:56 AM 37.9 °F - 37.9 °F 100% 29.86 in 4.0 mi Calm Calm - N/A   Clear
5:58 AM 37.4 °F - 37.4 °F 100% 29.83 in 1.5 mi Calm Calm - N/A   Clear
6:00 AM 37.4 °F - 37.4 °F 100% 29.83 in 1.0 mi Calm Calm - N/A   Clear
6:10 AM 37.4 °F - 37.4 °F 100% 29.84 in 2.0 mi Calm Calm - N/A   Clear
6:19 AM 35.6 °F - 35.6 °F 100% 29.84 in 3.0 mi Calm Calm - N/A   Clear
6:21 AM 37.4 °F - 37.4 °F 100% 29.84 in 0.8 mi Calm Calm - N/A   Clear
6:24 AM 37.4 °F - 37.4 °F 100% 29.84 in 0.2 mi Calm Calm - N/A Fog Fog
6:34 AM 37.4 °F - 37.4 °F 100% 29.84 in 0.8 mi Calm Calm - N/A   Clear
6:36 AM 37.4 °F - 37.4 °F 100% 29.85 in 1.2 mi Calm Calm - N/A   Clear
6:39 AM 37.4 °F - 37.4 °F 100% 29.85 in 0.8 mi Calm Calm - N/A   Clear
6:44 AM 37.4 °F - 37.4 °F 100% 29.85 in 0.2 mi Calm Calm - N/A Fog Fog
6:56 AM 37.9 °F - 37.9 °F 100% 29.88 in 10.0 mi Calm Calm - N/A   Mostly Cloudy
7:56 AM 41.9 °F 38.2 °F 41.9 °F 100% 29.89 in 10.0 mi SSE 5.8 mph - N/A   Overcast
8:56 AM 45.0 °F - 43.0 °F 93% 29.89 in 10.0 mi Calm Calm - N/A   Overcast
9:56 AM 46.4 °F - 42.8 °F 87% 29.86 in 10.0 mi Calm Calm - N/A   Mostly Cloudy
10:56 AM 50.0 °F - 43.0 °F 77% 29.89 in 10.0 mi SW 4.6 mph - N/A   Scattered Clouds
11:56 AM 55.9 °F - 45.0 °F 67% 29.87 in 10.0 mi West 6.9 mph - N/A   Clear
12:56 PM 61.0 °F - 43.9 °F 53% 29.83 in 10.0 mi Variable 5.8 mph - N/A   Partly Cloudy
1:56 PM 63.0 °F - 43.9 °F 50% 29.81 in 10.0 mi NNE 8.1 mph - N/A   Mostly Cloudy
2:56 PM 61.9 °F - 39.9 °F 44% 29.78 in 10.0 mi North 4.6 mph - N/A   Scattered Clouds
3:56 PM 59.0 °F - 43.0 °F 55% 29.79 in 10.0 mi North 17.3 mph 20.7 mph 0.00 in Rain Light Rain
4:56 PM 59.9 °F - 41.9 °F 51% 29.80 in 10.0 mi North 6.9 mph - 0.00 in   Scattered Clouds
5:56 PM 57.9 °F - 43.0 °F 58% 29.83 in 10.0 mi NNW 20.7 mph 24.2 mph N/A   Mostly Cloudy
6:56 PM 52.0 °F - 46.9 °F 83% 29.87 in 10.0 mi NNW 8.1 mph - 0.00 in   Overcast
7:56 PM 52.0 °F - 43.9 °F 74% 29.89 in 10.0 mi NNW 10.4 mph - N/A   Scattered Clouds
8:56 PM 50.9 °F - 45.9 °F 83% 29.92 in 10.0 mi NNW 10.4 mph - 0.00 in   Partly Cloudy
9:56 PM 46.9 °F - 43.9 °F 89% 29.94 in 10.0 mi NW 6.9 mph - N/A   Clear
10:56 PM 46.9 °F - 43.9 °F 89% 29.95 in 10.0 mi NNW 6.9 mph - N/A   Scattered Clouds
11:56 PM 48.9 °F - 45.0 °F 86% 29.97 in 10.0 mi NW 6.9 mph - N/A   Mostly Cloudy